TimeEDT,TemperatureF,Dew PointF,Humidity,Sea Level PressureIn,VisibilityMPH,Wind Direction,Wind SpeedMPH,Gust SpeedMPH,PrecipitationIn,Events,Conditions,WindDirDegrees,DateUTC
12:53 AM,30.9,21.0,67,30.01,10.0,Calm,Calm,-,N/A,,Clear,0,2013-03-24 04:53:00
1:53 AM,30.9,21.0,67,30.00,10.0,ENE,3.5,-,N/A,,Clear,70,2013-03-24 05:53:00
2:53 AM,30.0,21.0,69,29.98,10.0,ENE,3.5,-,N/A,,Clear,70,2013-03-24 06:53:00
3:53 AM,30.0,19.9,66,29.99,10.0,East,3.5,-,N/A,,Clear,90,2013-03-24 07:53:00
4:53 AM,28.9,21.0,72,29.99,10.0,Calm,Calm,-,N/A,,Clear,0,2013-03-24 08:53:00
5:53 AM,28.9,19.9,69,29.96,10.0,NE,5.8,-,N/A,,Clear,40,2013-03-24 09:53:00
6:53 AM,28.9,19.9,69,29.96,10.0,East,5.8,-,N/A,,Clear,100,2013-03-24 10:53:00
7:53 AM,28.9,19.9,69,29.95,10.0,Variable,4.6,-,N/A,,Clear,0,2013-03-24 11:53:00
8:53 AM,30.0,21.0,69,29.92,10.0,ENE,6.9,-,N/A,,Clear,70,2013-03-24 12:53:00
9:53 AM,30.9,21.0,67,29.87,10.0,ENE,10.4,-,N/A,,Clear,70,2013-03-24 13:53:00
10:53 AM,33.1,21.0,61,29.83,10.0,ENE,10.4,17.3,N/A,,Clear,70,2013-03-24 14:53:00
11:53 AM,35.1,19.9,54,29.80,10.0,ENE,12.7,-,N/A,,Clear,70,2013-03-24 15:53:00
12:53 PM,37.0,19.9,50,29.76,10.0,ENE,11.5,20.7,N/A,,Clear,70,2013-03-24 16:53:00
1:53 PM,37.9,19.9,48,29.75,10.0,NNE,6.9,-,N/A,,Partly Cloudy,20,2013-03-24 17:53:00
2:53 PM,37.9,19.9,48,29.73,10.0,NNE,6.9,-,N/A,,Overcast,30,2013-03-24 18:53:00
3:53 PM,37.9,21.0,51,29.69,10.0,NE,6.9,-,N/A,,Overcast,50,2013-03-24 19:53:00
4:53 PM,39.0,21.0,49,29.64,10.0,ENE,10.4,-,N/A,,Overcast,70,2013-03-24 20:53:00
5:53 PM,39.0,21.0,49,29.61,10.0,East,4.6,-,N/A,,Mostly Cloudy,100,2013-03-24 21:53:00
6:53 PM,39.9,21.0,47,29.58,10.0,East,6.9,-,N/A,,Overcast,80,2013-03-24 22:53:00
8:53 PM,39.9,25.0,55,29.56,10.0,East,9.2,-,N/A,,Overcast,90,2013-03-25 00:53:00
9:53 PM,37.0,28.0,70,29.54,10.0,East,8.1,17.3,N/A,,Overcast,80,2013-03-25 01:53:00
10:02 PM,35.6,28.4,75,29.51,10.0,ENE,11.5,18.4,N/A,,Overcast,70,2013-03-25 02:02:00
10:53 PM,36.0,28.9,76,29.51,10.0,East,6.9,-,N/A,,Overcast,90,2013-03-25 02:53:00
11:53 PM,36.0,28.0,73,29.49,10.0,East,9.2,-,0.00,,Overcast,90,2013-03-25 03:53:00